Change the Weather History Date:

Sunday, February 9, 2014

  Actual Average Record
Temperature  
Mean Temperature -10 °F -  
Max Temperature -2 °F 19 °F 46 °F (1991)
Min Temperature -18 °F -6 °F -33 °F (1951)
Degree Days  
Heating Degree Days 75    
Moisture  
Dew Point -19 °F    
Average Humidity 70    
Maximum Humidity 77    
Minimum Humidity 60    
Precipitation  
Precipitation 0.00 in - - ()
Sea Level Pressure  
Sea Level Pressure 30.27 in    
Wind  
Wind Speed 7 mph (West)    
Max Wind Speed 15 mph    
Max Gust Speed 20 mph    
Visibility 10 miles    
Events      
Averages and records for this station are not official NWS values.
T = Trace of Precipitation, MM = Missing Value Source: NWS Daily Summary

Daily Weather History Graph

Daily Weather History Graph

Search for Another Location

Airport or City:

Trip Planner

Search our weather history database for the weather conditions in past years. The results will help you decide how hot, cold, wet, or windy it might be!

Date:

Astronomy

Feb. 09, 2014 Rise Set
Actual Time 7:39 AM CST 5:32 PM CST
Civil Twilight 7:06 AM CST 6:05 PM CST
Nautical Twilight 6:29 AM CST 6:42 PM CST
Astronomical Twilight 5:52 AM CST 7:19 PM CST
Moon 1:03 PM CST (2/9) 3:54 AM CST (2/9)
Length of Visible Light 10h 58m
Length of Day
9h 52m
Waxing Gibbous, 77% of the Moon is Illuminated
Feb 9
Waxing Gibbous
Feb 14
Full
Feb 22
Last Quarter
Mar 1
New
Mar 8
First Quarter

Hourly Weather History & Observations

Time (CST) Temp. Windchill Dew Point Humidity Pressure Visibility Wind Dir Wind Speed Gust Speed Precip Events Conditions
12:01 AM -9.4 °F -22.7 °F -16.6 °F 71% 30.23 in 10.0 mi West 5.8 mph - N/A   Clear
12:21 AM -9.4 °F -22.7 °F -16.6 °F 71% 30.23 in 10.0 mi West 5.8 mph - N/A   Clear
12:41 AM -11.2 °F -24.8 °F -16.6 °F 77% 30.23 in 10.0 mi West 5.8 mph - N/A   Clear
1:01 AM -11.2 °F -26.4 °F -16.6 °F 77% 30.23 in 10.0 mi West 6.9 mph - N/A   Clear
1:21 AM -11.2 °F -24.8 °F -18.4 °F 70% 30.24 in 10.0 mi West 5.8 mph - N/A   Clear
1:41 AM -13.0 °F -27.0 °F -18.4 °F 77% 30.23 in 10.0 mi West 5.8 mph - N/A   Clear
2:01 AM -13.0 °F -25.1 °F -18.4 °F 77% 30.23 in 10.0 mi West 4.6 mph - N/A   Clear
2:21 AM -11.2 °F -23.0 °F -18.4 °F 70% 30.23 in 10.0 mi West 4.6 mph - N/A   Clear
3:01 AM -14.8 °F -27.2 °F -20.2 °F 77% 30.23 in 10.0 mi West 4.6 mph - N/A   Clear
3:21 AM -16.6 °F -31.3 °F -22.0 °F 76% 30.22 in 10.0 mi West 5.8 mph - N/A   Clear
3:41 AM -16.6 °F -26.8 °F -22.0 °F 76% 30.22 in 10.0 mi WSW 3.5 mph - N/A   Clear
4:01 AM -16.6 °F -26.8 °F -22.0 °F 76% 30.22 in 10.0 mi West 3.5 mph - N/A   Clear
4:21 AM -14.8 °F -24.8 °F -20.2 °F 77% 30.22 in 10.0 mi West 3.5 mph - N/A   Clear
4:41 AM -16.6 °F -29.3 °F -22.0 °F 76% 30.22 in 10.0 mi West 4.6 mph - N/A   Clear
5:21 AM -16.6 °F -29.3 °F -23.8 °F 70% 30.23 in 10.0 mi WSW 4.6 mph - N/A   Clear
5:41 AM -16.6 °F -31.3 °F -23.8 °F 70% 30.23 in 10.0 mi West 5.8 mph - N/A   Clear
6:01 AM -16.6 °F -29.3 °F -23.8 °F 70% 30.23 in 10.0 mi WSW 4.6 mph - N/A   Clear
6:21 AM -18.4 °F -31.4 °F -25.6 °F 70% 30.23 in 10.0 mi West 4.6 mph - N/A   Clear
6:41 AM -18.4 °F -33.4 °F -23.8 °F 76% 30.23 in 10.0 mi West 5.8 mph - N/A   Clear
7:01 AM -18.4 °F -33.4 °F -25.6 °F 70% 30.23 in 10.0 mi West 5.8 mph - N/A   Clear
7:21 AM -18.4 °F -31.4 °F -23.8 °F 76% 30.24 in 10.0 mi West 4.6 mph - N/A   Clear
7:41 AM -18.4 °F -31.4 °F -25.6 °F 70% 30.24 in 10.0 mi West 4.6 mph - N/A   Clear
8:01 AM -18.4 °F -33.4 °F -25.6 °F 70% 30.24 in 10.0 mi West 5.8 mph - N/A   Clear
8:21 AM -18.4 °F -33.4 °F -23.8 °F 76% 30.24 in 10.0 mi West 5.8 mph - N/A   Clear
8:41 AM -16.6 °F -31.3 °F -23.8 °F 70% 30.24 in 10.0 mi West 5.8 mph - N/A   Clear
9:01 AM -14.8 °F -30.8 °F -22.0 °F 70% 30.25 in 10.0 mi WNW 6.9 mph - N/A   Clear
9:21 AM -14.8 °F -30.8 °F -20.2 °F 77% 30.25 in 10.0 mi West 6.9 mph - N/A   Clear
9:41 AM -13.0 °F -27.0 °F -18.4 °F 77% 30.25 in 10.0 mi WNW 5.8 mph - N/A   Clear
10:01 AM -11.2 °F -24.8 °F -16.6 °F 77% 30.26 in 10.0 mi WNW 5.8 mph - N/A   Scattered Clouds
10:21 AM -9.4 °F -24.3 °F -16.6 °F 71% 30.26 in 10.0 mi WNW 6.9 mph - N/A   Overcast
10:41 AM -9.4 °F -22.7 °F -14.8 °F 77% 30.27 in 10.0 mi WNW 5.8 mph - N/A   Overcast
11:01 AM -7.6 °F -20.6 °F -14.8 °F 71% 30.27 in 10.0 mi NW 5.8 mph - N/A   Mostly Cloudy
11:21 AM -7.6 °F -26.6 °F -14.8 °F 71% 30.27 in 10.0 mi WNW 11.5 mph - N/A   Mostly Cloudy
11:41 AM -7.6 °F -23.4 °F -16.6 °F 65% 30.27 in 7.0 mi WNW 8.1 mph - N/A   Overcast
12:01 PM -5.8 °F -21.2 °F -14.8 °F 65% 30.27 in 7.0 mi West 8.1 mph - N/A   Overcast
12:21 PM -5.8 °F -22.4 °F -14.8 °F 65% 30.27 in 7.0 mi West 9.2 mph - N/A   Overcast
12:41 PM -5.8 °F -22.4 °F -14.8 °F 65% 30.27 in 10.0 mi SW 9.2 mph - N/A   Mostly Cloudy
1:01 PM -5.8 °F -21.2 °F -14.8 °F 65% 30.26 in 7.0 mi SW 8.1 mph - N/A   Scattered Clouds
1:21 PM -5.8 °F -23.4 °F -14.8 °F 65% 30.26 in 7.0 mi SW 10.4 mph - N/A   Scattered Clouds
2:01 PM -2.2 °F -18.9 °F -13.0 °F 60% 30.25 in 10.0 mi West 10.4 mph - N/A   Scattered Clouds
2:21 PM -2.2 °F -18.0 °F -13.0 °F 60% 30.25 in 10.0 mi WSW 9.2 mph - N/A   Clear
2:41 PM -2.2 °F -22.2 °F -13.0 °F 60% 30.25 in 10.0 mi WSW 15.0 mph - N/A   Clear
3:01 PM -4.0 °F -23.7 °F -14.8 °F 60% 30.25 in 10.0 mi WSW 13.8 mph 17.3 mph N/A   Clear
3:41 PM -4.0 °F -24.5 °F -14.8 °F 60% 30.26 in 10.0 mi WSW 15.0 mph 19.6 mph N/A   Clear
4:01 PM -4.0 °F -23.0 °F -14.8 °F 60% 30.26 in 10.0 mi WSW 12.7 mph - N/A   Clear
4:21 PM -4.0 °F -24.5 °F -14.8 °F 60% 30.27 in 10.0 mi WSW 15.0 mph - N/A   Clear
4:41 PM -5.8 °F -25.2 °F -14.8 °F 65% 30.27 in 10.0 mi WSW 12.7 mph 17.3 mph N/A   Clear
5:01 PM -5.8 °F -23.4 °F -16.6 °F 60% 30.28 in 10.0 mi WSW 10.4 mph 17.3 mph N/A   Clear
5:21 PM -7.6 °F -25.7 °F -16.6 °F 65% 30.28 in 10.0 mi WSW 10.4 mph 16.1 mph N/A   Clear
5:41 PM -7.6 °F -24.6 °F -16.6 °F 65% 30.29 in 10.0 mi WSW 9.2 mph - N/A   Clear
6:01 PM -9.4 °F -26.8 °F -16.6 °F 71% 30.30 in 10.0 mi WSW 9.2 mph - N/A   Clear
6:21 PM -9.4 °F -26.8 °F -18.4 °F 65% 30.30 in 10.0 mi West 9.2 mph - N/A   Clear
6:41 PM -9.4 °F -27.9 °F -18.4 °F 65% 30.31 in 10.0 mi West 10.4 mph - N/A   Clear
7:01 PM -9.4 °F -28.9 °F -18.4 °F 65% 30.31 in 10.0 mi West 11.5 mph - N/A   Clear
7:21 PM -11.2 °F -31.1 °F -18.4 °F 70% 30.31 in 10.0 mi West 11.5 mph - N/A   Clear
7:41 PM -11.2 °F -31.1 °F -18.4 °F 70% 30.31 in 10.0 mi West 11.5 mph - N/A   Clear
8:01 PM -11.2 °F -29.0 °F -18.4 °F 70% 30.31 in 10.0 mi West 9.2 mph - N/A   Clear
8:21 PM -11.2 °F -29.0 °F -18.4 °F 70% 30.32 in 10.0 mi West 9.2 mph - N/A   Clear
8:41 PM -11.2 °F -30.1 °F -18.4 °F 70% 30.32 in 10.0 mi West 10.4 mph - N/A   Clear
9:01 PM -11.2 °F -27.8 °F -18.4 °F 70% 30.32 in 10.0 mi West 8.1 mph - N/A   Clear
9:21 PM -13.0 °F -30.0 °F -20.2 °F 70% 30.33 in 10.0 mi West 8.1 mph - N/A   Clear
9:41 PM -13.0 °F -30.0 °F -20.2 °F 70% 30.33 in 10.0 mi West 8.1 mph - N/A   Clear
10:01 PM -13.0 °F -30.0 °F -20.2 °F 70% 30.33 in 10.0 mi West 8.1 mph - N/A   Clear
10:21 PM -14.8 °F -30.8 °F -20.2 °F 77% 30.33 in 10.0 mi West 6.9 mph - N/A   Clear
10:41 PM -13.0 °F -30.0 °F -20.2 °F 70% 30.33 in 10.0 mi WNW 8.1 mph - N/A   Clear
11:21 PM -16.6 °F -29.3 °F -23.8 °F 70% 30.34 in 10.0 mi SW 4.6 mph - N/A   Clear
11:41 PM -16.6 °F -31.3 °F -23.8 °F 70% 30.34 in 10.0 mi SW 5.8 mph - N/A   Clear